When you browse on this site, cookies collect data to enhance your experience and personalize the content and advertising you see.
Visit our Privacy Policy to learn more. By continuing to use the site, you agree to this use of cookies and data.
  • In Sweden
  • List of Countries
  • For 7 days
  • Water Temperature
  • Weather Map
  • Weather Widgets
  • user-avatar
    Login

    Hourly Weather Robertowo

    Today, 25 February, Tuesday

    Time Temperature Precipitation Wind Pressure Humidity
    00:00 +1°C° 0.4 mm 4 mps 746 mmHg 90%
    01:00 0°C° 0 mm 4 mps 745 mmHg 95%
    02:00 0°C° 0.5 mm 4 mps 744 mmHg 96%
    03:00 0°C° 0.5 mm 4 mps 743 mmHg 96%
    04:00 0°C° 0.5 mm 5 mps 742 mmHg 96%
    05:00 +1°C° 0.4 mm 5 mps 742 mmHg 96%
    06:00 +3°C° 0.4 mm 4 mps 741 mmHg 96%
    07:00 +3°C° 0 mm 4 mps 741 mmHg 95%
    08:00 +5°C° 0.1 mm 5 mps 740 mmHg 91%
    09:00 +5°C° 0.1 mm 6 mps 740 mmHg 88%
    10:00 +8°C° 0.1 mm 7 mps 740 mmHg 85%
    11:00 +9°C° 0.1 mm 7 mps 739 mmHg 77%
    12:00 +10°C° 0.1 mm 7 mps 739 mmHg 69%
    13:00 +11°C° 0.1 mm 7 mps 739 mmHg 61%
    14:00 +10°C° 0.1 mm 7 mps 738 mmHg 64%
    15:00 +10°C° 0.1 mm 6 mps 738 mmHg 66%
    16:00 +9°C° 0.1 mm 5 mps 738 mmHg 69%
    17:00 +8°C° 0.4 mm 4 mps 738 mmHg 74%
    18:00 +8°C° 0.4 mm 4 mps 737 mmHg 79%
    19:00 +7°C° 0.4 mm 4 mps 737 mmHg 84%
    20:00 +6°C° 0.1 mm 4 mps 737 mmHg 81%
    21:00 +6°C° 0.1 mm 4 mps 737 mmHg 78%
    22:00 +5°C° 0.1 mm 4 mps 737 mmHg 74%
    23:00 +5°C° 0 mm 4 mps 737 mmHg 76%

    Tomorrow, 26 February, Wednesday

    Time Temperature Precipitation Wind Pressure Humidity
    00:00 +4°C° 0 mm 3 mps 737 mmHg 79%
    01:00 +3°C° 0 mm 3 mps 737 mmHg 81%
    02:00 +3°C° 0 mm 3 mps 736 mmHg 83%
    03:00 +2°C° 0 mm 3 mps 736 mmHg 86%
    04:00 +1°C° 0 mm 4 mps 735 mmHg 89%
    05:00 +1°C° 0 mm 4 mps 735 mmHg 88%
    06:00 +2°C° 0 mm 3 mps 735 mmHg 88%
    07:00 +2°C° 0 mm 3 mps 735 mmHg 87%
    08:00 +3°C° 0 mm 4 mps 735 mmHg 83%
    09:00 +3°C° 0 mm 5 mps 735 mmHg 78%
    10:00 +3°C° 0 mm 6 mps 735 mmHg 74%
    11:00 +4°C° 0 mm 6 mps 735 mmHg 70%
    12:00 +4°C° 0 mm 6 mps 735 mmHg 67%
    13:00 +5°C° 0 mm 5 mps 735 mmHg 63%
    14:00 +5°C° 0 mm 5 mps 735 mmHg 64%
    15:00 +5°C° 0 mm 4 mps 735 mmHg 64%
    16:00 +5°C° 0 mm 4 mps 735 mmHg 64%
    17:00 +4°C° 0.1 mm 4 mps 735 mmHg 72%
    18:00 +3°C° 0.1 mm 4 mps 736 mmHg 79%
    19:00 +1°C° 0.1 mm 4 mps 736 mmHg 87%
    20:00 +1°C° 0.5 mm 4 mps 736 mmHg 88%
    21:00 +1°C° 0.5 mm 4 mps 736 mmHg 88%
    22:00 0°C° 0.5 mm 4 mps 736 mmHg 89%
    23:00 0°C° 0 mm 5 mps 737 mmHg 88%

    Day after tomorrow, 27 February, Thursday

    Time Temperature Precipitation Wind Pressure Humidity
    00:00 0°C° 0 mm 5 mps 737 mmHg 87%
    01:00 -1°C° 0 mm 5 mps 738 mmHg 86%
    02:00 -1°C° 0 mm 5 mps 738 mmHg 86%
    03:00 -2°C° 0 mm 6 mps 738 mmHg 86%
    04:00 -3°C° 0 mm 6 mps 738 mmHg 86%
    05:00 -3°C° 0.2 mm 6 mps 739 mmHg 88%
    06:00 -3°C° 0.2 mm 6 mps 739 mmHg 89%
    07:00 -3°C° 0.2 mm 7 mps 740 mmHg 91%
    08:00 -3°C° 0.1 mm 7 mps 740 mmHg 85%
    09:00 -2°C° 0.1 mm 7 mps 741 mmHg 79%
    10:00 -2°C° 0.1 mm 7 mps 741 mmHg 73%
    11:00 -1°C° 0 mm 7 mps 741 mmHg 70%
    12:00 -1°C° 0 mm 7 mps 741 mmHg 67%
    13:00 0°C° 0 mm 7 mps 742 mmHg 64%
    14:00 0°C° 0.1 mm 7 mps 741 mmHg 68%
    15:00 +1°C° 0.1 mm 6 mps 741 mmHg 72%
    16:00 +1°C° 0.1 mm 6 mps 741 mmHg 75%
    17:00 0°C° 0 mm 5 mps 740 mmHg 78%
    18:00 -1°C° 0 mm 4 mps 740 mmHg 81%
    19:00 0°C° 0 mm 3 mps 740 mmHg 83%
    20:00 0°C° 0 mm 3 mps 739 mmHg 83%
    21:00 0°C° 0 mm 3 mps 739 mmHg 83%
    22:00 -1°C° 0 mm 2 mps 739 mmHg 83%
    23:00 -1°C° 0 mm 2 mps 738 mmHg 83%

    28 February, Friday

    Time Temperature Precipitation Wind Pressure Humidity
    00:00 -1°C° 0 mm 2 mps 738 mmHg 83%
    01:00 -1°C° 0 mm 2 mps 738 mmHg 83%
    02:00 -1°C° 0 mm 2 mps 737 mmHg 84%
    03:00 -1°C° 0 mm 2 mps 737 mmHg 85%
    04:00 -1°C° 0 mm 2 mps 737 mmHg 86%
    05:00 -1°C° 0.1 mm 2 mps 738 mmHg 88%
    06:00 -1°C° 0.1 mm 2 mps 738 mmHg 90%
    07:00 -1°C° 0.1 mm 2 mps 739 mmHg 92%
    08:00 0°C° 0.2 mm 3 mps 740 mmHg 92%
    09:00 0°C° 0.2 mm 3 mps 740 mmHg 93%
    10:00 -1°C° 0.2 mm 4 mps 741 mmHg 93%
    11:00 0°C° 0.2 mm 4 mps 742 mmHg 91%
    12:00 0°C° 0.2 mm 4 mps 743 mmHg 88%
    13:00 0°C° 0.2 mm 4 mps 744 mmHg 86%
    14:00 0°C° 0 mm 4 mps 744 mmHg 83%
    15:00 +2°C° 0 mm 3 mps 745 mmHg 80%
    16:00 +2°C° 0 mm 3 mps 745 mmHg 77%
    17:00 +1°C° 0 mm 3 mps 746 mmHg 80%
    18:00 +1°C° 0 mm 3 mps 746 mmHg 83%
    19:00 0°C° 0 mm 3 mps 747 mmHg 86%
    20:00 0°C° 0 mm 3 mps 747 mmHg 87%
    21:00 0°C° 0 mm 3 mps 747 mmHg 88%
    22:00 -1°C° 0 mm 3 mps 747 mmHg 89%
    23:00 -2°C° 0.4 mm 4 mps 747 mmHg 91%

    29 February, Saturday

    Time Temperature Precipitation Wind Pressure Humidity
    00:00 -1°C° 0.4 mm 4 mps 747 mmHg 93%
    01:00 -1°C° 0.4 mm 4 mps 748 mmHg 95%
    02:00 -1°C° 0.1 mm 4 mps 748 mmHg 93%
    03:00 -1°C° 0.1 mm 3 mps 749 mmHg 91%
    04:00 -1°C° 0.1 mm 3 mps 749 mmHg 89%
    05:00 -1°C° 0 mm 3 mps 749 mmHg 89%
    06:00 -2°C° 0 mm 2 mps 750 mmHg 89%
    07:00 -2°C° 0 mm 2 mps 751 mmHg 90%
    08:00 -1°C° 0 mm 2 mps 751 mmHg 83%
    09:00 +2°C° 0 mm 1 mps 751 mmHg 76%
    10:00 +2°C° 0 mm 1 mps 751 mmHg 70%
    11:00 +3°C° 0 mm 1 mps 751 mmHg 68%
    12:00 +3°C° 0 mm 1 mps 751 mmHg 65%
    13:00 +3°C° 0 mm 2 mps 751 mmHg 63%
    14:00 +3°C° 0 mm 2 mps 750 mmHg 65%
    15:00 +3°C° 0 mm 2 mps 750 mmHg 67%
    16:00 +1°C° 0 mm 3 mps 750 mmHg 69%
    17:00 +1°C° 0 mm 3 mps 749 mmHg 72%
    18:00 0°C° 0 mm 3 mps 749 mmHg 76%
    19:00 -1°C° 0 mm 4 mps 749 mmHg 79%
    20:00 -1°C° 0 mm 4 mps 748 mmHg 78%
    21:00 -1°C° 0 mm 5 mps 748 mmHg 77%
    22:00 -2°C° 0 mm 6 mps 747 mmHg 76%
    23:00 -2°C° 0 mm 6 mps 747 mmHg 76%

    1 March, Sunday

    Time Temperature Precipitation Wind Pressure Humidity
    00:00 -2°C° 0 mm 6 mps 746 mmHg 76%
    01:00 -2°C° 0 mm 6 mps 746 mmHg 75%
    02:00 -2°C° 0.1 mm 6 mps 745 mmHg 80%
    03:00 -2°C° 0.1 mm 6 mps 744 mmHg 84%
    04:00 -2°C° 0.1 mm 7 mps 744 mmHg 89%
    05:00 -1°C° 0.7 mm 6 mps 744 mmHg 90%
    06:00 +1°C° 0.7 mm 6 mps 744 mmHg 91%
    07:00 +2°C° 0.7 mm 5 mps 744 mmHg 92%
    08:00 +2°C° 0 mm 6 mps 744 mmHg 87%
    09:00 +3°C° 0 mm 6 mps 745 mmHg 82%
    10:00 +3°C° 0 mm 6 mps 745 mmHg 77%
    11:00 +4°C° 0 mm 6 mps 745 mmHg 73%
    12:00 +4°C° 0 mm 6 mps 745 mmHg 70%
    13:00 +4°C° 0 mm 6 mps 746 mmHg 66%
    14:00 +5°C° 0 mm 5 mps 746 mmHg 67%
    15:00 +5°C° 0 mm 5 mps 746 mmHg 67%
    16:00 +5°C° 0 mm 4 mps 746 mmHg 68%
    17:00 +4°C° 0 mm 4 mps 746 mmHg 71%
    18:00 +3°C° 0 mm 3 mps 746 mmHg 75%
    19:00 +2°C° 0 mm 3 mps 746 mmHg 79%
    20:00 +2°C° 0 mm 3 mps 746 mmHg 79%
    21:00 +2°C° 0 mm 3 mps 746 mmHg 80%
    22:00 +1°C° 0 mm 3 mps 746 mmHg 80%
    23:00 +1°C° 0 mm 3 mps 746 mmHg 82%
    Show more